Friendship, ME

3:57 PM EDT on September 27, 2016 (GMT -0400)
Knox County Regional

Weather History for KRKD - March, 2013

Change the Weather History Date:

Tuesday, March 5, 2013

  Actual Average Record
Temperature  
Mean Temperature 38 °F -  
Max Temperature 42 °F 33 °F 46 °F (2008)
Min Temperature 35 °F 20 °F 5 °F (2009)
Degree Days  
Heating Degree Days 26    
Moisture  
Dew Point 33 °F    
Average Humidity 84    
Maximum Humidity 93    
Minimum Humidity 70    
Precipitation  
Precipitation 0.00 in - - ()
Sea Level Pressure  
Sea Level Pressure 29.91 in    
Wind  
Wind Speed 9 mph (NNE)    
Max Wind Speed 15 mph    
Max Gust Speed 22 mph    
Visibility 10 miles    
Events      
Averages and records for this station are not official NWS values.
T = Trace of Precipitation, MM = Missing Value Source: NWS Daily Summary

Daily Weather History Graph

Daily Weather History Graph

Search for Another Location

Airport or City:

Trip Planner

Search our weather history database for the weather conditions in past years. The results will help you decide how hot, cold, wet, or windy it might be!

Date:

Astronomy

Mar. 05, 2013 Rise Set
Actual Time 6:06 AM EST 5:30 PM EST
Civil Twilight 5:37 AM EST 5:59 PM EST
Nautical Twilight 5:03 AM EST 6:32 PM EST
Astronomical Twilight 4:30 AM EST 7:06 PM EST
Moon 1:24 AM EST (3/5) 10:56 AM EST (3/5)
Length of Visible Light 12h 21m
Length of Day
11h 24m
Last Quarter, 41% of the Moon is Illuminated
Mar 5
Last Quarter
Mar 11
New
Mar 19
First Quarter
Mar 27
Full
Apr 3
Last Quarter

Hourly Weather History & Observations

Time (EST) Temp. Windchill Dew Point Humidity Pressure Visibility Wind Dir Wind Speed Gust Speed Precip Events Conditions
12:15 AM 35.6 °F 28.6 °F 33.8 °F 93% 29.63 in 10.0 mi North 9.2 mph 17.3 mph N/A   Overcast
12:35 AM 35.6 °F 28.6 °F 33.8 °F 93% 29.65 in 10.0 mi North 9.2 mph - N/A   Overcast
12:55 AM 35.6 °F 29.9 °F 33.8 °F 93% 29.66 in 10.0 mi North 6.9 mph 16.1 mph N/A   Overcast
1:15 AM 35.6 °F 28.6 °F 32.0 °F 87% 29.66 in 10.0 mi North 9.2 mph - N/A   Overcast
2:35 AM 35.6 °F 29.9 °F 32.0 °F 87% 29.69 in 10.0 mi North 6.9 mph 16.1 mph N/A   Overcast
2:55 AM 35.6 °F 28.6 °F 32.0 °F 87% 29.70 in 10.0 mi North 9.2 mph - N/A   Overcast
3:15 AM 35.6 °F 29.2 °F 33.8 °F 93% 29.71 in 10.0 mi North 8.1 mph 16.1 mph N/A   Overcast
3:35 AM 35.6 °F 28.6 °F 32.0 °F 87% 29.73 in 10.0 mi NNE 9.2 mph - N/A   Overcast
3:55 AM 35.6 °F 29.2 °F 33.8 °F 93% 29.73 in 10.0 mi North 8.1 mph 17.3 mph N/A   Overcast
4:15 AM 35.6 °F 29.2 °F 32.0 °F 87% 29.75 in 10.0 mi NNE 8.1 mph - N/A   Overcast
4:35 AM 35.6 °F 28.6 °F 32.0 °F 87% 29.76 in 10.0 mi NNE 9.2 mph 19.6 mph N/A   Overcast
4:55 AM 35.6 °F 29.9 °F 32.0 °F 87% 29.77 in 10.0 mi NNE 6.9 mph - N/A   Overcast
5:15 AM 35.6 °F 29.9 °F 32.0 °F 87% 29.78 in 10.0 mi North 6.9 mph - N/A   Overcast
5:35 AM 35.6 °F 30.7 °F 32.0 °F 87% 29.79 in 10.0 mi North 5.8 mph - N/A   Overcast
5:55 AM 35.6 °F 30.7 °F 32.0 °F 87% 29.80 in 10.0 mi North 5.8 mph - N/A   Overcast
6:15 AM 35.6 °F 30.7 °F 32.0 °F 87% 29.82 in 10.0 mi North 5.8 mph - N/A   Overcast
6:35 AM 35.6 °F 29.9 °F 32.0 °F 87% 29.83 in 10.0 mi NNE 6.9 mph - N/A   Overcast
6:55 AM 35.6 °F 30.7 °F 32.0 °F 87% 29.83 in 10.0 mi North 5.8 mph - N/A   Overcast
7:15 AM 35.6 °F 27.5 °F 32.0 °F 87% 29.84 in 10.0 mi NNE 11.5 mph 17.3 mph N/A   Overcast
8:35 AM 35.6 °F 28.0 °F 32.0 °F 87% 29.87 in 10.0 mi North 10.4 mph 18.4 mph N/A   Overcast
8:55 AM 35.6 °F 28.6 °F 33.8 °F 93% 29.88 in 10.0 mi North 9.2 mph 17.3 mph N/A   Overcast
9:15 AM 35.6 °F 29.2 °F 33.8 °F 93% 29.88 in 10.0 mi North 8.1 mph - N/A   Overcast
9:35 AM 37.4 °F 31.4 °F 33.8 °F 87% 29.89 in 10.0 mi NNE 8.1 mph - N/A   Overcast
9:55 AM 37.4 °F 31.4 °F 33.8 °F 87% 29.90 in 10.0 mi NNE 8.1 mph - N/A   Overcast
10:15 AM 37.4 °F 30.8 °F 33.8 °F 87% 29.90 in 10.0 mi NNE 9.2 mph 17.3 mph N/A   Overcast
10:35 AM 37.4 °F 32.1 °F 33.8 °F 87% 29.91 in 10.0 mi North 6.9 mph 17.3 mph N/A   Overcast
10:55 AM 37.4 °F 32.1 °F 33.8 °F 87% 29.91 in 10.0 mi NNE 6.9 mph - N/A   Overcast
11:15 AM 37.4 °F 30.8 °F 33.8 °F 87% 29.91 in 10.0 mi North 9.2 mph 17.3 mph N/A   Mostly Cloudy
11:35 AM 39.2 °F 33.0 °F 33.8 °F 81% 29.91 in 10.0 mi NNE 9.2 mph 18.4 mph N/A   Partly Cloudy
11:55 AM 39.2 °F 31.2 °F 33.8 °F 81% 29.92 in 10.0 mi NNE 13.8 mph 20.7 mph N/A   Scattered Clouds
12:15 PM 39.2 °F 31.6 °F 33.8 °F 81% 29.92 in 10.0 mi NNE 12.7 mph 19.6 mph N/A   Mostly Cloudy
12:35 PM 39.2 °F 32.0 °F 33.8 °F 81% 29.92 in 10.0 mi NNE 11.5 mph 21.9 mph N/A   Overcast
12:55 PM 39.2 °F 31.2 °F 33.8 °F 81% 29.93 in 10.0 mi NNE 13.8 mph 19.6 mph N/A   Overcast
1:15 PM 41.0 °F 34.3 °F 33.8 °F 76% 29.93 in 10.0 mi NNE 11.5 mph 20.7 mph N/A   Mostly Cloudy
1:35 PM 42.8 °F 36.6 °F 33.8 °F 70% 29.94 in 10.0 mi NNE 11.5 mph 16.1 mph N/A   Mostly Cloudy
1:55 PM 42.8 °F 37.0 °F 33.8 °F 70% 29.94 in 10.0 mi NNE 10.4 mph - N/A   Partly Cloudy
2:15 PM 42.8 °F 37.0 °F 33.8 °F 70% 29.94 in 10.0 mi NNE 10.4 mph 16.1 mph N/A   Clear
2:35 PM 42.8 °F 37.5 °F 33.8 °F 70% 29.94 in 10.0 mi NNE 9.2 mph 18.4 mph N/A   Clear
2:55 PM 42.8 °F 38.6 °F 33.8 °F 70% 29.94 in 10.0 mi North 6.9 mph 16.1 mph N/A   Clear
3:15 PM 42.8 °F 37.5 °F 33.8 °F 70% 29.95 in 10.0 mi NNE 9.2 mph - N/A   Partly Cloudy
3:35 PM 42.8 °F 37.5 °F 33.8 °F 70% 29.95 in 10.0 mi NNE 9.2 mph - N/A   Scattered Clouds
3:55 PM 41.0 °F 35.2 °F 33.8 °F 76% 29.96 in 10.0 mi NNE 9.2 mph - N/A   Partly Cloudy
4:15 PM 41.0 °F 35.2 °F 33.8 °F 76% 29.97 in 10.0 mi NNE 9.2 mph - N/A   Mostly Cloudy
4:35 PM 39.2 °F 32.0 °F 33.8 °F 81% 29.98 in 10.0 mi NNE 11.5 mph 16.1 mph N/A   Mostly Cloudy
4:55 PM 39.2 °F 35.0 °F 33.8 °F 81% 29.99 in 10.0 mi NNE 5.8 mph - N/A   Overcast
5:15 PM 39.2 °F 33.0 °F 33.8 °F 81% 30.00 in 10.0 mi NNE 9.2 mph - N/A   Overcast
5:35 PM 39.2 °F 34.2 °F 33.8 °F 81% 30.00 in 10.0 mi NNE 6.9 mph - N/A   Overcast
5:55 PM 39.2 °F 35.9 °F 33.8 °F 81% 30.01 in 10.0 mi North 4.6 mph - N/A   Overcast
6:15 PM 39.2 °F 35.0 °F 33.8 °F 81% 30.01 in 10.0 mi NNE 5.8 mph - N/A   Overcast
6:35 PM 39.2 °F 34.2 °F 33.8 °F 81% 30.02 in 10.0 mi NNE 6.9 mph - N/A   Overcast
6:55 PM 39.2 °F 34.2 °F 33.8 °F 81% 30.03 in 10.0 mi NNE 6.9 mph - N/A   Overcast
7:15 PM 37.4 °F 30.8 °F 33.8 °F 87% 30.03 in 10.0 mi NNE 9.2 mph - N/A   Overcast
7:35 PM 37.4 °F 32.1 °F 33.8 °F 87% 30.04 in 10.0 mi NNE 6.9 mph - N/A   Overcast
7:55 PM 37.4 °F 28.5 °F 33.8 °F 87% 30.04 in 10.0 mi NNE 15.0 mph 19.6 mph N/A   Overcast
8:15 PM 37.4 °F 28.5 °F 32.0 °F 81% 30.05 in 10.0 mi NNE 15.0 mph 18.4 mph N/A   Overcast
8:35 PM 37.4 °F 29.3 °F 32.0 °F 81% 30.05 in 10.0 mi NE 12.7 mph 18.4 mph N/A   Mostly Cloudy
8:55 PM 37.4 °F 30.3 °F 32.0 °F 81% 30.06 in 10.0 mi NNE 10.4 mph 17.3 mph N/A   Mostly Cloudy
9:15 PM 37.4 °F 30.8 °F 32.0 °F 81% 30.06 in 10.0 mi NNE 9.2 mph - N/A   Overcast
9:35 PM 35.6 °F 27.1 °F 33.8 °F 93% 30.07 in 10.0 mi NE 12.7 mph - N/A   Overcast
9:55 PM 35.6 °F 26.6 °F 32.0 °F 87% 30.07 in 10.0 mi NE 13.8 mph 18.4 mph N/A   Overcast
10:15 PM 35.6 °F 26.6 °F 32.0 °F 87% 30.08 in 10.0 mi NE 13.8 mph - N/A   Overcast
10:35 PM 35.6 °F 27.1 °F 32.0 °F 87% 30.08 in 10.0 mi NE 12.7 mph 19.6 mph N/A   Overcast
10:55 PM 35.6 °F 27.5 °F 32.0 °F 87% 30.08 in 10.0 mi NE 11.5 mph 18.4 mph N/A   Overcast
11:15 PM 35.6 °F 26.2 °F 33.8 °F 93% 30.09 in 10.0 mi NE 15.0 mph - N/A   Overcast
11:35 PM 35.6 °F 26.6 °F 33.8 °F 93% 30.09 in 10.0 mi NE 13.8 mph 20.7 mph N/A   Overcast
11:55 PM 35.6 °F 26.6 °F 33.8 °F 93% 30.10 in 10.0 mi NNE 13.8 mph 20.7 mph N/A   Overcast